Location: Fontevrault
(47.1823°N, 0.0493°E)
Time: 04:40:03
(UTC+00:00)

Uosat 12 SS-18 rocket - Pass Details

Date: 24 October 2021
Orbit: 579 x 1405 km, 64.6° (Epoch: 01 December)

Event Time Altitude Azimuth Distance (km) Brightness Sun altitude
Rises 18:45:32 0° 284° (WNW) 3,314 9.3 -19.2°
Reaches altitude 10° 18:48:31 10° 302° (WNW) 2,527 8.1 -19.7°
Maximum altitude 18:52:44 20° 347° (NNW) 2,121 6.9 -20.4°
Drops below altitude 10° 18:57:33 10° 32° (NNE) 2,953 7.3 -21.3°
Enters shadow 18:58:08 - 35° (NE) 3,107 7.3 -21.4°
